• In Russia
  • List of Countries
  • For 7 days
  • Water Temperature
  • Satellite Maps
  • Weather Map
  • Weather Widgets
  • user-avatar
    Login

    Hourly Weather Gold Coast

    Today, 16 August, Wednesday

    Time Temperature Precipitation Wind Pressure Humidity
    00:00 +15°C° 0 mm 4 mps 757 mmHg 68%
    01:00 +15°C° 0 mm 4 mps 757 mmHg 68%
    02:00 +15°C° 0 mm 4 mps 756 mmHg 67%
    03:00 +15°C° 0 mm 4 mps 756 mmHg 66%
    04:00 +14°C° 0 mm 4 mps 756 mmHg 66%
    05:00 +15°C° 0 mm 4 mps 756 mmHg 64%
    06:00 +15°C° 0 mm 5 mps 756 mmHg 62%
    07:00 +15°C° 0 mm 5 mps 756 mmHg 61%
    08:00 +20°C° 0 mm 6 mps 756 mmHg 52%
    09:00 +23°C° 0 mm 6 mps 756 mmHg 43%
    10:00 +26°C° 0 mm 7 mps 756 mmHg 36%
    11:00 +28°C° 0 mm 7 mps 755 mmHg 32%
    12:00 +32°C° 0 mm 7 mps 754 mmHg 29%
    13:00 +34°C° 0 mm 7 mps 754 mmHg 25%
    14:00 +33°C° 0 mm 7 mps 753 mmHg 27%
    15:00 +33°C° 0 mm 7 mps 753 mmHg 28%
    16:00 +31°C° 0 mm 9 mps 752 mmHg 32%
    17:00 +28°C° 0 mm 8 mps 753 mmHg 38%
    18:00 +26°C° 0 mm 8 mps 753 mmHg 43%
    19:00 +24°C° 0 mm 7 mps 754 mmHg 48%
    20:00 +23°C° 0 mm 7 mps 754 mmHg 51%
    21:00 +22°C° 0 mm 7 mps 754 mmHg 54%
    22:00 +21°C° 0 mm 6 mps 754 mmHg 57%
    23:00 +21°C° 0 mm 6 mps 754 mmHg 57%

    Tomorrow, 17 August, Thursday

    Time Temperature Precipitation Wind Pressure Humidity
    00:00 +20°C° 0 mm 5 mps 754 mmHg 58%
    01:00 +20°C° 0 mm 5 mps 755 mmHg 58%
    02:00 +19°C° 0 mm 5 mps 754 mmHg 58%
    03:00 +19°C° 0 mm 5 mps 754 mmHg 59%
    04:00 +17°C° 0 mm 5 mps 754 mmHg 60%
    05:00 +18°C° 0 mm 4 mps 755 mmHg 60%
    06:00 +18°C° 0 mm 4 mps 755 mmHg 60%
    07:00 +18°C° 0 mm 4 mps 755 mmHg 60%
    08:00 +21°C° 0 mm 4 mps 755 mmHg 52%
    09:00 +25°C° 0 mm 3 mps 755 mmHg 43%
    10:00 +28°C° 0 mm 2 mps 755 mmHg 35%
    11:00 +30°C° 0 mm 3 mps 755 mmHg 31%
    12:00 +31°C° 0 mm 3 mps 754 mmHg 27%
    13:00 +33°C° 0 mm 4 mps 754 mmHg 24%
    14:00 +33°C° 0 mm 4 mps 753 mmHg 26%
    15:00 +32°C° 0 mm 4 mps 753 mmHg 28%
    16:00 +32°C° 0 mm 5 mps 752 mmHg 30%
    17:00 +28°C° 0 mm 4 mps 753 mmHg 34%
    18:00 +26°C° 0 mm 4 mps 754 mmHg 37%
    19:00 +24°C° 0 mm 3 mps 754 mmHg 40%
    20:00 +22°C° 0 mm 4 mps 755 mmHg 42%
    21:00 +21°C° 0 mm 4 mps 755 mmHg 44%
    22:00 +20°C° 0 mm 4 mps 756 mmHg 45%
    23:00 +19°C° 0 mm 4 mps 756 mmHg 44%

    Day after tomorrow, 18 August, Friday

    Time Temperature Precipitation Wind Pressure Humidity
    00:00 +17°C° 0 mm 5 mps 756 mmHg 44%
    01:00 +16°C° 0 mm 5 mps 756 mmHg 43%
    02:00 +16°C° 0 mm 6 mps 756 mmHg 41%
    03:00 +15°C° 0 mm 6 mps 756 mmHg 39%
    04:00 +15°C° 0 mm 7 mps 756 mmHg 37%
    05:00 +15°C° 0 mm 6 mps 757 mmHg 38%
    06:00 +15°C° 0 mm 6 mps 757 mmHg 38%
    07:00 +14°C° 0 mm 6 mps 758 mmHg 39%
    08:00 +17°C° 0 mm 6 mps 758 mmHg 34%
    09:00 +20°C° 0 mm 6 mps 758 mmHg 29%
    10:00 +23°C° 0 mm 6 mps 758 mmHg 24%
    11:00 +23°C° 0 mm 6 mps 757 mmHg 23%
    12:00 +24°C° 0 mm 6 mps 757 mmHg 21%
    13:00 +26°C° 0 mm 6 mps 756 mmHg 19%
    14:00 +24°C° 0 mm 6 mps 756 mmHg 19%
    15:00 +24°C° 0 mm 6 mps 756 mmHg 20%
    16:00 +23°C° 0 mm 6 mps 755 mmHg 20%
    17:00 +21°C° 0 mm 7 mps 756 mmHg 23%
    18:00 +18°C° 0 mm 7 mps 757 mmHg 26%
    19:00 +16°C° 0 mm 7 mps 758 mmHg 29%
    20:00 +15°C° 0 mm 8 mps 758 mmHg 32%
    21:00 +15°C° 0 mm 8 mps 759 mmHg 35%
    22:00 +13°C° 0 mm 8 mps 759 mmHg 39%
    23:00 +12°C° 0 mm 8 mps 759 mmHg 39%

    19 August, Saturday

    Time Temperature Precipitation Wind Pressure Humidity
    00:00 +11°C° 0 mm 7 mps 759 mmHg 40%
    01:00 +11°C° 0 mm 7 mps 759 mmHg 41%
    02:00 +10°C° 0 mm 7 mps 759 mmHg 41%
    03:00 +10°C° 0 mm 7 mps 759 mmHg 42%
    04:00 +9°C° 0 mm 7 mps 759 mmHg 43%
    05:00 +9°C° 0 mm 7 mps 759 mmHg 43%
    06:00 +9°C° 0 mm 7 mps 759 mmHg 44%
    07:00 +9°C° 0 mm 7 mps 760 mmHg 44%
    08:00 +11°C° 0 mm 7 mps 760 mmHg 39%
    09:00 +13°C° 0 mm 8 mps 759 mmHg 33%
    10:00 +16°C° 0 mm 8 mps 759 mmHg 28%
    11:00 +17°C° 0 mm 8 mps 759 mmHg 25%
    12:00 +18°C° 0 mm 7 mps 758 mmHg 22%
    13:00 +20°C° 0 mm 7 mps 757 mmHg 19%
    14:00 +20°C° 0 mm 7 mps 757 mmHg 19%
    15:00 +20°C° 0 mm 7 mps 757 mmHg 18%
    16:00 +18°C° 0 mm 7 mps 757 mmHg 17%
    17:00 +16°C° 0 mm 6 mps 758 mmHg 20%
    18:00 +15°C° 0 mm 6 mps 758 mmHg 22%
    19:00 +13°C° 0 mm 6 mps 759 mmHg 25%
    20:00 +11°C° 0 mm 7 mps 760 mmHg 27%
    21:00 +11°C° 0 mm 7 mps 760 mmHg 28%
    22:00 +10°C° 0 mm 7 mps 761 mmHg 30%
    23:00 +9°C° 0 mm 7 mps 761 mmHg 33%

    20 August, Sunday

    Time Temperature Precipitation Wind Pressure Humidity
    00:00 +9°C° 0 mm 7 mps 761 mmHg 36%
    01:00 +8°C° 0 mm 7 mps 760 mmHg 39%
    02:00 +6°C° 0 mm 7 mps 760 mmHg 41%
    03:00 +6°C° 0 mm 7 mps 760 mmHg 44%
    04:00 +6°C° 0 mm 7 mps 760 mmHg 46%
    05:00 +7°C° 0 mm 6 mps 761 mmHg 48%
    06:00 +7°C° 0 mm 6 mps 761 mmHg 49%
    07:00 +7°C° 0 mm 6 mps 762 mmHg 50%
    08:00 +9°C° 0 mm 5 mps 762 mmHg 44%
    09:00 +13°C° 0 mm 5 mps 762 mmHg 37%
    10:00 +17°C° 0 mm 4 mps 761 mmHg 30%
    11:00 +18°C° 0 mm 4 mps 761 mmHg 26%
    12:00 +20°C° 0 mm 3 mps 760 mmHg 23%
    13:00 +22°C° 0 mm 3 mps 759 mmHg 19%
    14:00 +21°C° 0 mm 3 mps 759 mmHg 20%
    15:00 +21°C° 0 mm 3 mps 759 mmHg 21%
    16:00 +20°C° 0 mm 3 mps 759 mmHg 22%
    17:00 +18°C° 0 mm 3 mps 759 mmHg 30%
    18:00 +16°C° 0 mm 3 mps 760 mmHg 39%
    19:00 +12°C° 0 mm 3 mps 760 mmHg 47%
    20:00 +11°C° 0 mm 3 mps 761 mmHg 51%
    21:00 +12°C° 0 mm 2 mps 761 mmHg 54%
    22:00 +10°C° 0 mm 2 mps 761 mmHg 58%
    23:00 +10°C° 0 mm 2 mps 761 mmHg 58%

    21 August, Monday

    Time Temperature Precipitation Wind Pressure Humidity
    00:00 +9°C° 0 mm 2 mps 760 mmHg 57%
    01:00 +9°C° 0 mm 2 mps 760 mmHg 57%
    02:00 +9°C° 0 mm 2 mps 760 mmHg 57%
    03:00 +9°C° 0 mm 2 mps 760 mmHg 57%
    04:00 +8°C° 0 mm 2 mps 759 mmHg 56%
    05:00 +9°C° 0 mm 2 mps 760 mmHg 56%
    06:00 +9°C° 0 mm 2 mps 760 mmHg 55%
    07:00 +10°C° 0 mm 2 mps 761 mmHg 55%
    08:00 +14°C° 0 mm 2 mps 761 mmHg 47%
    09:00 +16°C° 0 mm 2 mps 761 mmHg 39%
    10:00 +19°C° 0 mm 2 mps 761 mmHg 31%
    11:00 +20°C° 0 mm 3 mps 760 mmHg 29%
    12:00 +21°C° 0 mm 3 mps 760 mmHg 26%
    13:00 +21°C° 0 mm 3 mps 759 mmHg 23%
    14:00 +20°C° 0 mm 3 mps 759 mmHg 30%
    15:00 +18°C° 0 mm 3 mps 759 mmHg 37%
    16:00 +16°C° 0 mm 3 mps 759 mmHg 45%
    17:00 +14°C° 0.1 mm 3 mps 759 mmHg 55%
    18:00 +12°C° 0.1 mm 3 mps 760 mmHg 66%
    19:00 +11°C° 0.1 mm 3 mps 761 mmHg 76%
    20:00 +11°C° 0.1 mm 3 mps 761 mmHg 76%
    21:00 +11°C° 0.1 mm 3 mps 761 mmHg 77%
    22:00 +10°C° 0.1 mm 2 mps 761 mmHg 77%
    23:00 +10°C° 0 mm 2 mps 760 mmHg 75%
    Show more